Regional Weather Roundup
Issued by NWS Northern Indiana

Home | Current Version | Previous Version | Text Only | Print | Product List | Glossary Off
Versions: 1 2 3 4 5 6 7 8 9 10 11 12 13 14 15 16 17 18 19 20 21 22 23 24 25 26 27 28 29 30 31 32 33 34 35 36 37 38 39 40 41 42 43 44 45 46 47 48 49 50

000
ASUS43 KIWX 271910
RWRIWX

KIWX WEATHER ROUNDUP
NATIONAL WEATHER SERVICE NORTHERN INDIANA
200 PM EST THU NOV 27 2014

NOTE: "FAIR" INDICATES FEW OR NO CLOUDS BELOW 12,000 FEET WITH NO
SIGNIFICANT WEATHER AND/OR OBSTRUCTIONS TO VISIBILITY.

* THESE STATIONS ARE NOT UNDER NWS QUALITY CONTROL. THEY ALSO MAY NOT
  REPORT WEATHER SUCH AS PRECIPITATION OR FOG.

INZ001>027-272000-
NORTHERN INDIANA

CITY           SKY/WX    TMP DP  RH WIND       PRES   REMARKS
GARY*          CLOUDY    30  18  59 W20       30.34R WCI  18
VALPARAISO     CLOUDY    27  19  72 NW9       30.31R WCI  18
MICHIGAN CITY* CLOUDY    30  21  69 NW9       30.30S WCI  22
LAPORTE*       LGT SNOW  30  24  79 NW16      30.29R WCI  18
KNOX*          CLOUDY    28  22  76 NW15      30.29R WCI  17
SOUTH BEND     FLURRIES  30  24  78 NW16G25   30.26R WCI  19
GOSHEN         LGT SNOW  30  26  85 W18G26    30.23R FOG     WCI  18
MONTICELLO*    CLOUDY    28  22  78 W14       30.32S WCI  16
LOGANSPORT*    CLOUDY    28  21  74 NW9       30.31S WCI  20
ROCHESTER*     CLOUDY    32  27  80 W8        30.28S WCI  25
WARSAW*        CLOUDY    30  27  86 W18G25    30.25R WCI  18
ANGOLA*        CLOUDY    32  19  59 W9        30.18S WCI  24
FORT WAYNE     LGT SNOW  31  26  82 W17       30.24R WCI  19
HUNTINGTON*    CLOUDY    30  25  79 W13       30.26R WCI  20
PERU/GRISSOM   CLOUDY    28  25  89 W13       30.29R WCI  17
MARION*          N/A     29  22  75 W17       30.28S WCI  17

$$
INZ028>050-272000-
CENTRAL INDIANA

CITY           SKY/WX    TMP DP  RH WIND       PRES   REMARKS
LAFAYETTE      CLOUDY    27  20  75 W13       30.34S WCI  16
KOKOMO*        CLOUDY    28  23  80 W21       30.29S WCI  15
MUNCIE*        LGT SNOW  30  23  75 W16G22    30.27S WCI  19
INDIANAPOLIS   PTSUNNY   30  18  60 NW17      30.31S WCI  18

$$
MIZ043>046-050>051-056>058-064>065-071>073-077>080-272000-
SOUTHWEST LOWER MICHIGAN

CITY           SKY/WX    TMP DP  RH WIND       PRES   REMARKS
BATTLE CREEK   CLOUDY    32  25  75 NW15      30.18R WCI  22
BENTON HARBOR  LGT SNOW  29  23  78 NW10G30   30.26R WCI  20
COLDWATER*     CLOUDY    33  30  88 W12       30.17S WCI  24
HILLSDALE*     FLURRIES  33  26  76 W8G16     30.15R WCI  26
HOLLAND        CLOUDY    29  22  75 NW14      30.24S WCI  18
GRAND RAPIDS   CLOUDY    30  21  69 NW15      30.20R WCI  19
KALAMAZOO      LGT SNOW  31  26  82 NW12      30.20R WCI  22
STURGIS*       LGT SNOW  30  27  86 NW14G22   30.19R WCI  20
THREE RIVERS*  LGT SNOW  32  28  86 NW12G18   30.21R WCI  23

$$
OHZ001>008-015>018-024>025-272000-
NORTHWEST OHIO

CITY           SKY/WX    TMP DP  RH WIND       PRES   REMARKS
WAUSEON*       PTSUNNY   34  25  69 W12G18    30.18S WCI  25
DEFIANCE       CLOUDY    33  26  75 SW7       30.21S WCI  27
FINDLAY        CLOUDY    34  22  61 W14       30.19R WCI  25
TOLEDO EXPRESS CLOUDY    33  23  66 W16       30.18S WCI  23
TOLEDO METCALF CLOUDY    35  23  61 W18       30.19R WCI  24
LIMA           CLOUDY    33  24  69 W16       30.20S WCI  23

$$
AND FOR LAKE MICHIGAN COASTAL AND OPEN LAKE BUOY OBSERVATIONS

STATION/POSITION TEMP    WIND        PRES    VSBY  WAVE
                 AIR SEA DIR/SP/G                  HT/PER
                 (F)     (DEG/KT/KT) (MB)    (MI)  (FT/S)
CALUMET HARBOR    27     260/  6/ 12 1025.8R
MICHIGAN CITY     28     280/ 22/ 25   N/A
SAINT JOSEPH      31     310/ 17/ 23 1025.7R
SOUTH LAKE BUOY   28 42  320/ 21/ 25 1026.1R         7/ 7

$$
&&



USA.gov is the U.S. government's official web portal to all federal, state and local government web resources and services.